パンスターズ彗星

C/2023 H3 ( PanSTARRS )

English version
Home page
Updated on August 10, 2025

---------------------------------------------------------------------

・ プロフィール

発見日 2023年4月28日
発見光度 20.8等
発見者 Pan-STARRS 2 telescope (Haleakala)

・ 軌道要素

Epoch 2025 May 5.0 TT = JDT 2460800.5
T 2024 Feb. 18.31734 TT                                 Pike
q   5.2316604            (2000.0)            P               Q
n   0.01961266     Peri.  193.26315     -0.36899908     +0.92874742
a  13.6179500      Node    55.09389     -0.84872374     -0.32109485
e   0.6158261      Incl.    2.48852     -0.37882409     -0.18527364
P  50.3
From 69 observations 2023 Mar. 16-2025 July 22, mean residual 0".3.

・ 光度変化

        m1 = 9.5 + 5 logΔ + 10.0 log r

---------------------------------------------------------------------

軌道要素はM.P.E.C. 2025-O159に掲載されたものです。
光度グラフはComet for Windowsで作成したものです。

---------------------------------------------------------------------

Copyright(C) Seiichi Yoshida (comet@aerith.net). All rights reserved.